Simultaneous Nadir Overpasses (SNOs) Predictions

Prediction of SNOs between METOP-A and NOAA-19 Satellite Orbit:

Table of predicted SNOs for the next 14.0 days since TLE Epoch: 6/29/2014
Index Date (METOP-A) Time (METOP-A) Lat,Lon (METOP-A) SZA (METOP-A ) Date (NOAA-19) Time (NOAA-19) Lat,Lon (NOAA-19) SZA (NOAA-19 ) Distance(km) Time Diff (sec)
1 07/09/2014 02:31:46 74.58, 138.08 52.20 07/09/2014 02:30:37 74.60, 135.82 52.31 66.89 69
2 07/09/2014 03:22:36 -74.14, -55.72 128.20 07/09/2014 03:21:29 -74.13, -55.68 128.21 1.82 67
3 07/09/2014 04:13:16 74.13, 111.56 51.79 07/09/2014 04:12:30 74.14, 111.55 51.81 1.74 46
4 07/09/2014 05:03:58 -74.13, -81.10 128.21 07/09/2014 05:03:32 -74.10, -81.12 128.23 2.66 26
5 07/09/2014 05:54:38 74.11, 86.18 51.78 07/09/2014 05:54:33 74.11, 86.10 51.79 2.45 5
6 07/09/2014 06:45:21 -74.06,-106.61 128.26 07/09/2014 06:45:35 -74.08,-106.57 128.25 2.02 14
7 07/09/2014 07:36:01 74.04, 60.68 51.73 07/09/2014 07:36:35 74.04, 60.78 51.72 3.29 34
8 07/09/2014 08:26:43 -74.05,-131.99 128.27 07/09/2014 08:27:38 -74.05,-132.01 128.27 0.70 55
9 07/09/2014 09:17:24 73.98, 35.18 51.68 07/09/2014 09:18:38 74.01, 35.34 51.69 6.24 74




NCC Satellite Simultaneous Nadir Overpasses (SNOs) Prediction Service
